Time,TemperatureF,DewpointF,PressureIn,WindDirection,WindDirectionDegrees,WindSpeedMPH,WindSpeedGustMPH,Humidity,HourlyPrecipIn,Conditions,Clouds,dailyrainin,SolarRadiationWatts/m^2,SoftwareType,DateUTC
2013-04-23 00:01:00,37.9,36.1,30.04,NNW,331,14.0,14.0,93,0.08,-RA,,0.54,0.0,WeatherDisplay:10.37,2013-04-23 05:01:00,
2013-04-23 00:06:00,37.9,36.3,30.04,NNE,12,13.8,13.8,94,0.08,-RA,,0.55,0.0,WeatherDisplay:10.37,2013-04-23 05:06:00,
2013-04-23 00:11:00,37.8,36.2,30.03,NNW,345,21.9,21.9,94,0.09,-RA,,0.55,0.0,WeatherDisplay:10.37,2013-04-23 05:11:00,
2013-04-23 00:16:00,37.7,35.9,30.01,NNW,347,17.3,17.3,93,0.10,-RA,,0.56,0.0,WeatherDisplay:10.37,2013-04-23 05:16:00,
2013-04-23 00:21:00,37.5,35.7,30.05,North,360,16.1,16.1,93,0.07,-RA,,0.56,0.0,WeatherDisplay:10.37,2013-04-23 05:21:00,
2013-04-23 00:26:00,37.5,35.7,30.05,NNW,344,15.0,15.0,93,0.06,-RA,,0.56,0.0,WeatherDisplay:10.37,2013-04-23 05:26:00,
2013-04-23 00:31:00,37.2,35.4,30.02,NE,39,16.1,16.1,93,0.08,-RA,,0.59,0.0,WeatherDisplay:10.37,2013-04-23 05:31:00,
2013-04-23 00:36:00,36.9,35.1,29.98,East,92,13.8,13.8,93,0.10,-RA,,0.61,0.0,WeatherDisplay:10.37,2013-04-23 05:36:00,
2013-04-23 00:41:00,36.8,35.2,30.03,NW,304,19.6,19.6,94,0.11,-RA,,0.62,0.0,WeatherDisplay:10.37,2013-04-23 05:41:00,
2013-04-23 00:46:00,36.9,35.3,30.03,NNW,327,22.0,22.0,94,0.11,-RA,,0.62,0.0,WeatherDisplay:10.37,2013-04-23 05:46:00,
2013-04-23 00:51:00,36.8,35.2,30.02,North,355,13.0,13.0,94,0.12,RA,,0.63,0.0,WeatherDisplay:10.37,2013-04-23 05:51:00,
2013-04-23 00:56:00,36.7,35.1,30.02,NNE,18,19.6,19.6,94,0.10,RA,,0.64,0.0,WeatherDisplay:10.37,2013-04-23 05:56:00,
2013-04-23 01:01:00,36.7,35.1,30.01,NE,44,26.5,26.5,94,0.11,RA,,0.00,0.0,WeatherDisplay:10.37,2013-04-23 06:01:00,
2013-04-23 01:06:00,36.5,34.9,30.01,NE,49,19.6,19.6,94,0.12,RA,,0.01,0.0,WeatherDisplay:10.37,2013-04-23 06:06:00,
2013-04-23 01:11:00,36.4,34.8,30.00,North,360,24.2,24.2,94,0.12,RA,,0.02,0.0,WeatherDisplay:10.37,2013-04-23 06:11:00,
2013-04-23 01:16:00,36.3,34.7,30.00,North,355,18.4,18.4,94,0.11,OVC,,0.02,0.0,WeatherDisplay:10.37,2013-04-23 06:16:00,
2013-04-23 01:21:00,36.2,34.6,30.04,North,349,20.7,20.7,94,0.11,OVC,,0.02,0.0,WeatherDisplay:10.37,2013-04-23 06:21:00,
2013-04-23 01:26:00,36.2,34.6,30.05,NNW,343,24.2,24.2,94,0.12,RA,,0.03,0.0,WeatherDisplay:10.37,2013-04-23 06:26:00,
2013-04-23 01:31:00,36.2,34.6,30.03,NNE,24,17.3,17.3,94,0.11,RA,,0.04,0.0,WeatherDisplay:10.37,2013-04-23 06:31:00,
2013-04-23 01:36:00,36.0,34.4,30.01,ENE,66,18.4,18.4,94,0.13,RA,,0.09,0.0,WeatherDisplay:10.37,2013-04-23 06:36:00,
2013-04-23 01:41:00,35.7,33.9,30.02,NNW,347,19.6,19.6,93,0.13,RA,,0.10,0.0,WeatherDisplay:10.37,2013-04-23 06:41:00,
2013-04-23 01:46:00,35.5,33.9,30.01,NNE,13,20.7,20.7,94,0.13,OVC,,0.10,0.0,WeatherDisplay:10.37,2013-04-23 06:46:00,
2013-04-23 01:51:00,35.5,33.9,30.09,SW,232,17.3,17.3,94,0.13,RA,,0.11,0.0,WeatherDisplay:10.37,2013-04-23 06:51:00,
2013-04-23 01:56:00,35.6,34.0,30.10,North,355,12.7,12.7,94,0.13,RA,,0.12,0.0,WeatherDisplay:10.37,2013-04-23 06:56:00,
2013-04-23 02:01:00,35.6,34.0,30.06,NNW,333,18.4,18.4,94,0.16,RA,,0.16,0.0,WeatherDisplay:10.37,2013-04-23 07:01:00,
2013-04-23 02:06:00,35.5,33.9,30.08,NW,315,24.2,24.2,94,0.18,RA,,0.19,0.0,WeatherDisplay:10.37,2013-04-23 07:06:00,
2013-04-23 02:11:00,35.5,33.9,30.09,NW,322,19.6,19.6,94,0.18,RA,,0.20,0.0,WeatherDisplay:10.37,2013-04-23 07:11:00,
2013-04-23 02:16:00,35.3,33.7,30.04,NNW,338,23.0,23.0,94,0.18,OVC,,0.20,0.0,WeatherDisplay:10.37,2013-04-23 07:16:00,
2013-04-23 02:21:00,35.2,33.4,30.02,North,360,19.6,19.6,93,0.19,RA,,0.21,0.0,WeatherDisplay:10.37,2013-04-23 07:21:00,
2013-04-23 02:26:00,35.1,33.3,30.00,NE,34,20.7,20.7,93,0.19,RA,,0.22,0.0,WeatherDisplay:10.37,2013-04-23 07:26:00,
2013-04-23 02:31:00,35.1,33.5,30.06,NNW,336,21.9,21.9,94,0.18,-RA,,0.22,0.0,WeatherDisplay:10.37,2013-04-23 07:31:00,
2013-04-23 02:36:00,35.1,33.3,30.04,North,360,21.9,21.9,93,0.13,-RA,,0.22,0.0,WeatherDisplay:10.37,2013-04-23 07:36:00,
2013-04-23 02:41:00,35.1,33.3,30.01,NNW,336,16.1,16.1,93,0.14,-RA,,0.24,0.0,WeatherDisplay:10.37,2013-04-23 07:41:00,
2013-04-23 02:46:00,35.1,33.5,30.10,NW,306,18.0,18.0,94,0.16,-RA,,0.26,0.0,WeatherDisplay:10.37,2013-04-23 07:46:00,
2013-04-23 02:51:00,35.1,33.5,30.04,North,350,20.7,20.7,94,0.16,-RA,,0.28,0.0,WeatherDisplay:10.37,2013-04-23 07:51:00,
2013-04-23 02:56:00,34.9,33.3,30.06,NW,321,19.6,19.6,94,0.26,-RA,,0.38,0.0,WeatherDisplay:10.37,2013-04-23 07:56:00,
2013-04-23 03:01:00,34.8,33.2,30.06,WNW,296,27.6,27.6,94,0.26,RA,,0.42,0.0,WeatherDisplay:10.37,2013-04-23 08:01:00,
2013-04-23 03:06:00,34.8,33.2,30.07,NNW,338,19.6,19.6,94,0.23,OVC,,0.42,0.0,WeatherDisplay:10.37,2013-04-23 08:06:00,
2013-04-23 03:11:00,34.8,33.2,30.10,NNW,346,26.5,26.5,94,0.24,RA,,0.44,0.0,WeatherDisplay:10.37,2013-04-23 08:11:00,
2013-04-23 03:16:00,34.7,33.2,30.05,NW,311,16.1,16.1,94,0.26,RA,,0.47,0.0,WeatherDisplay:10.37,2013-04-23 08:16:00,
2013-04-23 03:21:00,34.6,33.1,30.06,NNW,344,26.5,26.5,94,0.27,RA,,0.48,0.0,WeatherDisplay:10.37,2013-04-23 08:21:00,
2013-04-23 03:26:00,34.4,32.9,30.03,North,11,25.3,25.3,94,0.28,RA,,0.50,0.0,WeatherDisplay:10.37,2013-04-23 08:26:00,
2013-04-23 03:31:00,34.3,32.8,30.04,North,9,17.3,17.3,94,0.28,OVC,,0.50,0.0,WeatherDisplay:10.37,2013-04-23 08:31:00,
2013-04-23 03:36:00,34.3,33.0,30.05,North,9,20.7,20.7,95,0.28,OVC,,0.50,0.0,WeatherDisplay:10.37,2013-04-23 08:36:00,
2013-04-23 03:41:00,34.3,32.8,30.02,NNE,28,24.2,24.2,94,0.27,RA,,0.51,0.0,WeatherDisplay:10.37,2013-04-23 08:41:00,
2013-04-23 03:46:00,34.2,32.7,30.03,NNW,342,21.9,21.9,94,0.25,OVC,,0.51,0.0,WeatherDisplay:10.37,2013-04-23 08:46:00,
2013-04-23 03:51:00,34.2,32.7,30.04,North,350,21.9,21.9,94,0.25,-SN,,0.52,0.0,WeatherDisplay:10.37,2013-04-23 08:51:00,
2013-04-23 03:56:00,34.2,32.7,30.03,NNW,346,8.1,8.1,94,0.14,-SN,,0.52,0.0,WeatherDisplay:10.37,2013-04-23 08:56:00,
2013-04-23 04:01:00,34.1,32.6,30.03,NNW,345,25.3,25.3,94,0.10,-SN,,0.52,0.0,WeatherDisplay:10.37,2013-04-23 09:01:00,
2013-04-23 04:06:00,34.1,32.6,30.03,North,9,18.4,18.4,94,0.10,-SN,,0.52,0.0,WeatherDisplay:10.37,2013-04-23 09:06:00,
2013-04-23 04:11:00,34.1,32.6,30.02,NW,324,24.0,24.0,94,0.08,-RA,,0.52,0.0,WeatherDisplay:10.37,2013-04-23 09:11:00,
2013-04-23 04:16:00,34.2,32.4,30.04,NNW,335,21.9,21.9,93,0.06,-RA,,0.52,0.0,WeatherDisplay:10.37,2013-04-23 09:16:00,
2013-04-23 04:21:00,34.2,32.4,30.04,NW,315,19.6,19.6,93,0.04,-RA,,0.52,0.0,WeatherDisplay:10.37,2013-04-23 09:21:00,
2013-04-23 04:26:00,34.2,32.4,30.04,North,350,23.0,23.0,93,0.02,-RA,,0.52,0.0,WeatherDisplay:10.37,2013-04-23 09:26:00,
2013-04-23 04:31:00,34.1,32.0,30.04,NNW,348,24.2,24.2,92,0.02,-RA,,0.52,0.0,WeatherDisplay:10.37,2013-04-23 09:31:00,
2013-04-23 04:36:00,34.1,32.0,30.04,NNW,338,23.0,23.0,92,0.02,-RA,,0.52,0.0,WeatherDisplay:10.37,2013-04-23 09:36:00,
2013-04-23 04:41:00,34.1,32.3,30.03,NNW,331,17.3,17.3,93,0.01,-RA,,0.52,0.0,WeatherDisplay:10.37,2013-04-23 09:41:00,
2013-04-23 04:46:00,34.0,31.9,30.02,NNE,24,25.3,25.3,92,0.01,-RA,,0.52,0.0,WeatherDisplay:10.37,2013-04-23 09:46:00,
2013-04-23 04:51:00,34.0,31.9,30.02,NNW,329,15.0,15.0,92,0.00,-RA,,0.52,0.0,WeatherDisplay:10.37,2013-04-23 09:51:00,
2013-04-23 04:56:00,34.0,32.2,30.04,North,9,17.3,17.3,93,0.00,-RA,,0.52,0.0,WeatherDisplay:10.37,2013-04-23 09:56:00,
2013-04-23 05:01:00,33.9,32.1,30.05,North,360,19.6,19.6,93,0.00,-RA,,0.52,0.0,WeatherDisplay:10.37,2013-04-23 10:01:00,
2013-04-23 05:06:00,33.9,32.1,30.05,North,5,12.7,12.7,93,0.00,-RA,,0.52,0.0,WeatherDisplay:10.37,2013-04-23 10:06:00,
2013-04-23 05:11:00,33.9,31.8,30.06,North,355,20.7,20.7,92,0.00,-RA,,0.52,0.0,WeatherDisplay:10.37,2013-04-23 10:11:00,
2013-04-23 05:16:00,33.9,32.1,30.06,NNE,17,19.6,19.6,93,0.00,-RA,,0.52,0.0,WeatherDisplay:10.37,2013-04-23 10:16:00,
2013-04-23 05:21:00,33.9,31.8,30.06,NW,308,21.0,21.0,92,0.00,-RA,,0.52,0.0,WeatherDisplay:10.37,2013-04-23 10:21:00,
2013-04-23 05:26:00,33.9,31.8,30.05,NW,322,17.3,17.3,92,0.00,-RA,,0.52,0.0,WeatherDisplay:10.37,2013-04-23 10:26:00,
2013-04-23 05:31:00,33.8,31.7,30.05,North,349,21.9,21.9,92,0.00,-RA,,0.52,0.0,WeatherDisplay:10.37,2013-04-23 10:31:00,
2013-04-23 05:36:00,33.8,31.7,30.05,NNW,330,17.3,17.3,92,0.00,-RA,,0.52,0.0,WeatherDisplay:10.37,2013-04-23 10:36:00,
2013-04-23 05:41:00,33.7,31.6,30.06,NNW,348,24.2,24.2,92,0.00,-RA,,0.52,0.0,WeatherDisplay:10.37,2013-04-23 10:41:00,
2013-04-23 05:46:00,33.7,31.6,30.05,North,5,15.0,15.0,92,0.00,-RA,,0.52,0.0,WeatherDisplay:10.37,2013-04-23 10:46:00,
2013-04-23 05:51:00,33.6,31.5,30.05,North,360,17.3,17.3,92,0.00,-RA,,0.52,0.0,WeatherDisplay:10.37,2013-04-23 10:51:00,
2013-04-23 05:56:00,33.6,31.5,30.06,NW,322,21.9,21.9,92,0.00,-RA,,0.52,0.0,WeatherDisplay:10.37,2013-04-23 10:56:00,
2013-04-23 06:01:00,33.5,31.4,30.05,NW,322,13.8,13.8,92,0.00,-SN,,0.52,0.0,WeatherDisplay:10.37,2013-04-23 11:01:00,
2013-04-23 06:06:00,33.4,31.6,30.07,NNE,31,19.0,19.0,93,0.00,-SN,,0.52,0.0,WeatherDisplay:10.37,2013-04-23 11:06:00,
2013-04-23 06:11:00,33.3,31.2,30.07,NNW,336,23.0,23.0,92,0.00,-SN,,0.52,0.0,WeatherDisplay:10.37,2013-04-23 11:11:00,
2013-04-23 06:16:00,33.3,31.5,30.07,NNW,346,19.0,19.0,93,0.00,-SN,,0.52,0.0,WeatherDisplay:10.37,2013-04-23 11:16:00,
2013-04-23 06:21:00,33.3,31.5,30.08,North,5,19.6,19.6,93,0.01,-SN,,0.53,0.0,WeatherDisplay:10.37,2013-04-23 11:21:00,
2013-04-23 06:26:00,33.3,31.5,30.08,North,5,20.7,20.7,93,0.01,-SN,,0.53,0.0,WeatherDisplay:10.37,2013-04-23 11:26:00,
2013-04-23 06:31:00,33.2,31.4,30.09,NNW,348,17.3,17.3,93,0.01,-SN,,0.53,0.0,WeatherDisplay:10.37,2013-04-23 11:31:00,
2013-04-23 06:36:00,33.2,31.7,30.09,NNE,17,9.2,9.2,94,0.01,-SN,,0.53,0.0,WeatherDisplay:10.37,2013-04-23 11:36:00,
2013-04-23 06:41:00,33.1,31.3,30.09,NW,314,16.1,16.1,93,0.01,-SN,,0.54,0.0,WeatherDisplay:10.37,2013-04-23 11:41:00,
2013-04-23 06:46:00,33.0,31.2,30.10,North,355,20.0,20.0,93,0.02,-SN,,0.54,0.0,WeatherDisplay:10.37,2013-04-23 11:46:00,
2013-04-23 06:51:00,33.0,31.2,30.10,NNW,345,18.4,18.4,93,0.02,-SN,,0.54,0.0,WeatherDisplay:10.37,2013-04-23 11:51:00,
2013-04-23 06:56:00,33.0,31.2,30.10,NNW,337,17.0,17.0,93,0.02,-SN,,0.54,0.0,WeatherDisplay:10.37,2013-04-23 11:56:00,
2013-04-23 07:01:00,33.0,31.5,30.10,North,11,19.6,19.6,94,0.02,OVC,,0.54,0.0,WeatherDisplay:10.37,2013-04-23 12:01:00,
2013-04-23 07:06:00,32.9,31.4,30.10,NNE,15,18.4,18.4,94,0.02,OVC,,0.54,0.0,WeatherDisplay:10.37,2013-04-23 12:06:00,
2013-04-23 07:11:00,32.9,31.4,30.10,NW,306,20.0,20.0,94,0.02,-RA,,0.54,0.0,WeatherDisplay:10.37,2013-04-23 12:11:00,
2013-04-23 07:16:00,32.8,31.0,30.09,NW,317,16.1,16.1,93,0.02,-RA,,0.54,7.0,WeatherDisplay:10.37,2013-04-23 12:16:00,
2013-04-23 07:21:00,32.7,30.9,30.10,NNE,17,20.7,20.7,93,0.01,-RA,,0.54,11.0,WeatherDisplay:10.37,2013-04-23 12:21:00,
2013-04-23 07:26:00,32.6,30.8,30.11,NNE,15,19.6,19.6,93,0.01,-RA,,0.54,7.0,WeatherDisplay:10.37,2013-04-23 12:26:00,
2013-04-23 07:31:00,32.6,30.8,30.11,NW,320,19.6,19.6,93,0.02,-RA,,0.55,5.0,WeatherDisplay:10.37,2013-04-23 12:31:00,
2013-04-23 07:36:00,32.6,30.8,30.12,NW,311,18.4,18.4,93,0.02,-RA,,0.55,5.0,WeatherDisplay:10.37,2013-04-23 12:36:00,
2013-04-23 07:41:00,32.6,30.8,30.11,North,355,21.9,21.9,93,0.02,-RA,,0.55,9.0,WeatherDisplay:10.37,2013-04-23 12:41:00,
2013-04-23 07:46:00,32.6,30.8,30.11,NNE,26,18.4,18.4,93,0.01,-RA,,0.55,12.0,WeatherDisplay:10.37,2013-04-23 12:46:00,
2013-04-23 07:51:00,32.7,30.9,30.12,NNW,327,16.1,16.1,93,0.01,-RA,,0.55,14.0,WeatherDisplay:10.37,2013-04-23 12:51:00,
2013-04-23 07:56:00,32.8,31.0,30.12,North,360,17.3,17.3,93,0.01,-RA,,0.55,12.0,WeatherDisplay:10.37,2013-04-23 12:56:00,
2013-04-23 08:01:00,32.8,31.0,30.12,NE,35,19.6,19.6,93,0.01,-RA,,0.55,30.0,WeatherDisplay:10.37,2013-04-23 13:01:00,
2013-04-23 08:06:00,32.7,30.9,30.13,North,11,23.0,23.0,93,0.01,-RA,,0.55,12.0,WeatherDisplay:10.37,2013-04-23 13:06:00,
2013-04-23 08:11:00,32.7,30.9,30.13,NNW,345,15.0,15.0,93,0.01,-RA,,0.55,19.0,WeatherDisplay:10.37,2013-04-23 13:11:00,
2013-04-23 08:16:00,32.5,30.7,30.13,NNW,337,18.0,18.0,93,0.01,-RA,,0.55,18.0,WeatherDisplay:10.37,2013-04-23 13:16:00,
2013-04-23 08:21:00,32.5,30.7,30.13,NE,53,24.2,24.2,93,0.01,-RA,,0.55,21.0,WeatherDisplay:10.37,2013-04-23 13:21:00,
2013-04-23 08:26:00,32.5,30.7,30.13,NNW,338,13.8,13.8,93,0.01,-RA,,0.55,44.0,WeatherDisplay:10.37,2013-04-23 13:26:00,
2013-04-23 08:31:00,32.5,30.7,30.13,NNE,27,16.1,16.1,93,0.00,-RA,,0.55,40.0,WeatherDisplay:10.37,2013-04-23 13:31:00,
2013-04-23 08:36:00,32.5,30.7,30.13,North,9,13.8,13.8,93,0.00,-RA,,0.55,26.0,WeatherDisplay:10.37,2013-04-23 13:36:00,
2013-04-23 08:41:00,32.5,30.7,30.13,NNW,334,19.6,19.6,93,0.00,-RA,,0.55,44.0,WeatherDisplay:10.37,2013-04-23 13:41:00,
2013-04-23 08:46:00,32.5,30.7,30.13,NE,50,13.8,13.8,93,0.00,-RA,,0.55,37.0,WeatherDisplay:10.37,2013-04-23 13:46:00,
2013-04-23 08:51:00,32.5,30.7,30.13,North,355,15.0,15.0,93,0.00,-RA,,0.55,40.0,WeatherDisplay:10.37,2013-04-23 13:51:00,
2013-04-23 08:56:00,32.5,31.0,30.13,NNE,17,11.5,11.5,94,0.00,-RA,,0.55,42.0,WeatherDisplay:10.37,2013-04-23 13:56:00,
2013-04-23 09:01:00,32.4,30.6,30.13,North,349,10.4,10.4,93,0.00,-RA,,0.55,44.0,WeatherDisplay:10.37,2013-04-23 14:01:00,
2013-04-23 09:06:00,32.3,30.5,30.14,NNE,13,13.8,13.8,93,0.00,-RA,,0.55,46.0,WeatherDisplay:10.37,2013-04-23 14:06:00,
2013-04-23 09:11:00,32.4,30.6,30.14,NNW,347,13.8,13.8,93,0.00,-RA,,0.55,56.0,WeatherDisplay:10.37,2013-04-23 14:11:00,
2013-04-23 09:16:00,32.4,30.3,30.14,North,355,17.3,17.3,92,0.00,-RA,,0.55,46.0,WeatherDisplay:10.37,2013-04-23 14:16:00,
2013-04-23 09:21:00,32.4,30.6,30.14,North,360,17.3,17.3,93,0.00,-RA,,0.55,49.0,WeatherDisplay:10.37,2013-04-23 14:21:00,
2013-04-23 09:26:00,32.4,30.3,30.15,NNW,343,20.7,20.7,92,0.00,-RA,,0.55,51.0,WeatherDisplay:10.37,2013-04-23 14:26:00,
2013-04-23 09:31:00,32.4,30.3,30.15,NNW,334,15.0,15.0,92,0.00,-RA,,0.55,53.0,WeatherDisplay:10.37,2013-04-23 14:31:00,
2013-04-23 09:36:00,32.4,30.3,30.15,North,355,12.7,12.7,92,0.00,-RA,,0.55,49.0,WeatherDisplay:10.37,2013-04-23 14:36:00,
2013-04-23 09:41:00,32.5,30.4,30.15,NNW,347,10.0,10.0,92,0.00,-RA,,0.55,46.0,WeatherDisplay:10.37,2013-04-23 14:41:00,
2013-04-23 09:46:00,32.3,30.2,30.16,NNW,342,12.7,12.7,92,0.00,-RA,,0.55,46.0,WeatherDisplay:10.37,2013-04-23 14:46:00,
2013-04-23 09:51:00,32.3,30.2,30.16,North,360,16.1,16.1,92,0.00,-RA,,0.55,46.0,WeatherDisplay:10.37,2013-04-23 14:51:00,
2013-04-23 09:56:00,32.3,30.2,30.16,NNW,344,18.4,18.4,92,0.00,-RA,,0.55,49.0,WeatherDisplay:10.37,2013-04-23 14:56:00,
2013-04-23 10:01:00,32.3,30.0,30.16,North,355,19.6,19.6,91,0.00,-DZ,,0.55,74.0,WeatherDisplay:10.37,2013-04-23 15:01:00,
2013-04-23 10:06:00,32.4,30.3,30.16,NNW,336,19.6,19.6,92,0.00,-DZ,,0.55,83.0,WeatherDisplay:10.37,2013-04-23 15:06:00,
2013-04-23 10:11:00,32.5,30.4,30.16,NNE,29,13.8,13.8,92,0.00,-DZ,,0.55,72.0,WeatherDisplay:10.37,2013-04-23 15:11:00,
2013-04-23 10:16:00,32.5,30.4,30.16,North,351,13.0,13.0,92,0.00,-DZ,,0.55,79.0,WeatherDisplay:10.37,2013-04-23 15:16:00,
2013-04-23 10:21:00,32.5,30.4,30.16,North,360,11.0,11.0,92,0.01,-DZ,,0.56,104.0,WeatherDisplay:10.37,2013-04-23 15:21:00,
2013-04-23 10:26:00,32.5,30.4,30.16,NNE,12,8.1,8.1,92,0.01,-DZ,,0.56,93.0,WeatherDisplay:10.37,2013-04-23 15:26:00,
2013-04-23 10:31:00,32.4,30.3,30.17,NW,311,19.6,19.6,92,0.01,-DZ,,0.56,95.0,WeatherDisplay:10.37,2013-04-23 15:31:00,
2013-04-23 10:36:00,32.3,30.2,30.17,NW,322,15.0,15.0,92,0.01,-DZ,,0.56,102.0,WeatherDisplay:10.37,2013-04-23 15:36:00,
2013-04-23 10:41:00,32.4,30.6,30.17,NNW,333,17.3,17.3,93,0.01,-DZ,,0.56,113.0,WeatherDisplay:10.37,2013-04-23 15:41:00,
2013-04-23 10:46:00,32.4,30.6,30.17,NNW,344,12.7,12.7,93,0.01,-DZ,,0.56,111.0,WeatherDisplay:10.37,2013-04-23 15:46:00,
2013-04-23 10:51:00,32.5,30.7,30.17,North,5,24.2,24.2,93,0.01,-DZ,,0.56,91.0,WeatherDisplay:10.37,2013-04-23 15:51:00,
2013-04-23 10:56:00,32.4,30.3,30.18,NNW,344,16.1,16.1,92,0.01,-DZ,,0.56,93.0,WeatherDisplay:10.37,2013-04-23 15:56:00,
2013-04-23 11:01:00,32.6,30.5,30.18,NNE,15,17.0,17.0,92,0.01,-DZ,,0.56,113.0,WeatherDisplay:10.37,2013-04-23 16:01:00,
2013-04-23 11:06:00,32.6,30.5,30.18,NW,315,13.8,13.8,92,0.01,-DZ,,0.56,76.0,WeatherDisplay:10.37,2013-04-23 16:06:00,
2013-04-23 11:11:00,32.6,30.5,30.18,NNW,332,18.4,18.4,92,0.01,-DZ,,0.56,88.0,WeatherDisplay:10.37,2013-04-23 16:11:00,
2013-04-23 11:16:00,32.4,30.3,30.18,NNW,329,19.6,19.6,92,0.01,-DZ,,0.56,118.0,WeatherDisplay:10.37,2013-04-23 16:16:00,
2013-04-23 11:21:00,32.4,30.6,30.18,North,355,23.0,23.0,93,0.00,-DZ,,0.56,116.0,WeatherDisplay:10.37,2013-04-23 16:21:00,
2013-04-23 11:26:00,32.4,30.6,30.19,NNW,330,13.8,13.8,93,0.00,-DZ,,0.56,107.0,WeatherDisplay:10.37,2013-04-23 16:26:00,
2013-04-23 11:31:00,32.5,30.4,30.19,NW,309,19.6,19.6,92,0.00,-DZ,,0.56,116.0,WeatherDisplay:10.37,2013-04-23 16:31:00,
2013-04-23 11:36:00,32.4,30.3,30.19,NW,314,16.1,16.1,92,0.00,-DZ,,0.56,130.0,WeatherDisplay:10.37,2013-04-23 16:36:00,
2013-04-23 11:41:00,32.5,30.4,30.19,NNW,344,15.0,15.0,92,0.00,-DZ,,0.56,91.0,WeatherDisplay:10.37,2013-04-23 16:41:00,
2013-04-23 11:46:00,32.5,30.4,30.19,North,355,19.0,19.0,92,0.00,-DZ,,0.56,121.0,WeatherDisplay:10.37,2013-04-23 16:46:00,
2013-04-23 11:51:00,32.4,30.3,30.19,NNW,331,17.3,17.3,92,0.00,-DZ,,0.56,127.0,WeatherDisplay:10.37,2013-04-23 16:51:00,
2013-04-23 11:56:00,32.4,30.3,30.19,North,5,19.6,19.6,92,0.00,-DZ,,0.56,132.0,WeatherDisplay:10.37,2013-04-23 16:56:00,
2013-04-23 12:01:00,32.4,30.1,30.20,NNW,346,15.0,15.0,91,0.00,-DZ,,0.56,165.0,WeatherDisplay:10.37,2013-04-23 17:01:00,
2013-04-23 12:06:00,32.5,30.4,30.20,North,349,16.1,16.1,92,0.00,-DZ,,0.56,148.0,WeatherDisplay:10.37,2013-04-23 17:06:00,
2013-04-23 12:11:00,32.5,30.4,30.20,North,9,12.0,12.0,92,0.00,-DZ,,0.56,160.0,WeatherDisplay:10.37,2013-04-23 17:11:00,
2013-04-23 12:16:00,32.6,30.3,30.19,NNE,14,18.4,18.4,91,0.00,-DZ,,0.56,174.0,WeatherDisplay:10.37,2013-04-23 17:16:00,
2013-04-23 12:21:00,32.8,30.5,30.20,North,355,12.0,12.0,91,0.00,-DZ,,0.56,162.0,WeatherDisplay:10.37,2013-04-23 17:21:00,
2013-04-23 12:26:00,33.0,30.9,30.20,NNW,335,13.8,13.8,92,0.00,-DZ,,0.56,139.0,WeatherDisplay:10.37,2013-04-23 17:26:00,
2013-04-23 12:31:00,32.9,30.8,30.20,NNW,342,11.5,11.5,92,0.00,-DZ,,0.56,146.0,WeatherDisplay:10.37,2013-04-23 17:31:00,
2013-04-23 12:36:00,33.0,31.2,30.20,North,360,11.5,11.5,93,0.00,-DZ,,0.56,146.0,WeatherDisplay:10.37,2013-04-23 17:36:00,
2013-04-23 12:41:00,33.0,31.2,30.20,NNW,345,13.8,13.8,93,0.00,-DZ,,0.56,155.0,WeatherDisplay:10.37,2013-04-23 17:41:00,
2013-04-23 12:46:00,32.9,31.1,30.20,North,355,17.3,17.3,93,0.00,-DZ,,0.56,195.0,WeatherDisplay:10.37,2013-04-23 17:46:00,
2013-04-23 12:51:00,32.8,30.7,30.20,NE,41,16.1,16.1,92,0.00,-DZ,,0.56,200.0,WeatherDisplay:10.37,2013-04-23 17:51:00,
2013-04-23 12:56:00,32.9,30.6,30.20,NNW,330,18.4,18.4,91,0.00,-DZ,,0.56,176.0,WeatherDisplay:10.37,2013-04-23 17:56:00,
2013-04-23 13:01:00,33.0,30.9,30.20,North,9,19.6,19.6,92,0.00,-DZ,,0.56,132.0,WeatherDisplay:10.37,2013-04-23 18:01:00,
2013-04-23 13:06:00,33.0,30.9,30.20,North,355,19.6,19.6,92,0.00,-DZ,,0.56,142.0,WeatherDisplay:10.37,2013-04-23 18:06:00,
2013-04-23 13:11:00,32.9,30.6,30.20,NNW,343,13.8,13.8,91,0.00,-DZ,,0.56,162.0,WeatherDisplay:10.37,2013-04-23 18:11:00,
2013-04-23 13:16:00,32.8,30.5,30.20,North,360,17.3,17.3,91,0.00,-DZ,,0.56,146.0,WeatherDisplay:10.37,2013-04-23 18:16:00,
2013-04-23 13:21:00,32.9,30.8,30.20,North,351,10.4,10.4,92,0.00,-DZ,,0.56,151.0,WeatherDisplay:10.37,2013-04-23 18:21:00,
2013-04-23 13:26:00,33.0,30.7,30.20,North,355,13.8,13.8,91,0.00,-DZ,,0.56,127.0,WeatherDisplay:10.37,2013-04-23 18:26:00,
2013-04-23 13:31:00,32.9,30.6,30.21,NNW,342,19.6,19.6,91,0.00,-DZ,,0.56,188.0,WeatherDisplay:10.37,2013-04-23 18:31:00,
2013-04-23 13:36:00,32.8,30.5,30.21,NNW,336,18.4,18.4,91,0.00,-DZ,,0.56,179.0,WeatherDisplay:10.37,2013-04-23 18:36:00,
2013-04-23 13:41:00,32.9,30.6,30.20,NW,308,18.4,18.4,91,0.00,-DZ,,0.56,193.0,WeatherDisplay:10.37,2013-04-23 18:41:00,
2013-04-23 13:46:00,32.9,30.3,30.20,North,10,8.1,8.1,90,0.00,-DZ,,0.56,181.0,WeatherDisplay:10.37,2013-04-23 18:46:00,
2013-04-23 13:51:00,33.2,30.9,30.20,North,351,13.8,13.8,91,0.00,-DZ,,0.56,195.0,WeatherDisplay:10.37,2013-04-23 18:51:00,
2013-04-23 13:56:00,33.4,30.8,30.20,NW,319,11.5,11.5,90,0.00,-DZ,,0.56,199.0,WeatherDisplay:10.37,2013-04-23 18:56:00,
2013-04-23 14:01:00,33.4,30.8,30.20,NNE,13,18.4,18.4,90,0.00,-DZ,,0.56,200.0,WeatherDisplay:10.37,2013-04-23 19:01:00,
2013-04-23 14:06:00,33.3,30.7,30.20,North,355,0.0,0.0,90,0.00,-DZ,,0.56,185.0,WeatherDisplay:10.37,2013-04-23 19:06:00,
2013-04-23 14:11:00,33.3,30.7,30.20,North,355,0.0,0.0,90,0.00,-DZ,,0.56,174.0,WeatherDisplay:10.37,2013-04-23 19:11:00,
2013-04-23 14:16:00,33.2,30.6,30.20,NNW,337,0.0,0.0,90,0.00,-DZ,,0.56,250.0,WeatherDisplay:10.37,2013-04-23 19:16:00,
2013-04-23 14:21:00,33.5,31.2,30.20,North,360,0.0,0.0,91,0.00,-DZ,,0.56,176.0,WeatherDisplay:10.37,2013-04-23 19:21:00,
2013-04-23 14:26:00,33.5,31.2,30.20,NW,325,0.0,0.0,91,0.00,-DZ,,0.56,246.0,WeatherDisplay:10.37,2013-04-23 19:26:00,
2013-04-23 14:31:00,33.6,31.0,30.20,North,5,0.0,0.0,90,0.00,-DZ,,0.56,188.0,WeatherDisplay:10.37,2013-04-23 19:31:00,
2013-04-23 14:36:00,33.7,31.1,30.20,NW,307,13.8,13.8,90,0.00,-DZ,,0.56,179.0,WeatherDisplay:10.37,2013-04-23 19:36:00,
2013-04-23 14:41:00,33.8,31.2,30.20,NW,321,19.6,19.6,90,0.00,-DZ,,0.56,186.0,WeatherDisplay:10.37,2013-04-23 19:41:00,
2013-04-23 14:46:00,34.0,31.4,30.20,North,355,16.1,16.1,90,0.00,-DZ,,0.56,188.0,WeatherDisplay:10.37,2013-04-23 19:46:00,
2013-04-23 14:51:00,34.1,31.2,30.20,NW,309,13.0,13.0,89,0.00,-DZ,,0.56,123.0,WeatherDisplay:10.37,2013-04-23 19:51:00,
2013-04-23 14:56:00,34.1,31.2,30.20,NNW,336,17.3,17.3,89,0.00,-DZ,,0.56,107.0,WeatherDisplay:10.37,2013-04-23 19:56:00,
2013-04-23 15:01:00,34.1,31.5,30.20,NNE,27,11.5,11.5,90,0.00,-DZ,,0.56,169.0,WeatherDisplay:10.37,2013-04-23 20:01:00,
2013-04-23 15:06:00,34.2,31.0,30.20,WNW,302,20.7,20.7,88,0.00,-DZ,,0.56,134.0,WeatherDisplay:10.37,2013-04-23 20:06:00,
2013-04-23 15:11:00,34.1,30.6,30.20,WNW,302,16.1,16.1,87,0.00,-DZ,,0.56,216.0,WeatherDisplay:10.37,2013-04-23 20:11:00,
2013-04-23 15:16:00,34.2,30.4,30.20,NNW,340,16.1,16.1,86,0.00,-DZ,,0.56,183.0,WeatherDisplay:10.37,2013-04-23 20:16:00,
2013-04-23 15:21:00,34.3,30.3,30.20,NNW,327,15.0,15.0,85,0.00,-DZ,,0.56,220.0,WeatherDisplay:10.37,2013-04-23 20:21:00,
2013-04-23 15:26:00,34.4,30.1,30.20,North,360,17.3,17.3,84,0.00,-DZ,,0.56,174.0,WeatherDisplay:10.37,2013-04-23 20:26:00,
2013-04-23 15:31:00,34.5,29.9,30.20,NW,325,19.6,19.6,83,0.00,-DZ,,0.56,206.0,WeatherDisplay:10.37,2013-04-23 20:31:00,
2013-04-23 15:36:00,34.6,30.0,30.20,NNW,336,16.1,16.1,83,0.00,-DZ,,0.56,214.0,WeatherDisplay:10.37,2013-04-23 20:36:00,
2013-04-23 15:41:00,34.7,29.8,30.20,NNW,340,19.6,19.6,82,0.00,OVC,,0.56,204.0,WeatherDisplay:10.37,2013-04-23 20:41:00,
2013-04-23 15:46:00,34.8,29.9,30.20,NNE,24,12.7,12.7,82,0.00,OVC,,0.56,229.0,WeatherDisplay:10.37,2013-04-23 20:46:00,
2013-04-23 15:51:00,35.0,29.8,30.20,North,5,15.0,15.0,81,0.00,OVC,,0.56,260.0,WeatherDisplay:10.37,2013-04-23 20:51:00,
2013-04-23 15:56:00,35.2,30.0,30.20,North,5,10.4,10.4,81,0.00,OVC,,0.56,239.0,WeatherDisplay:10.37,2013-04-23 20:56:00,
2013-04-23 16:01:00,35.5,30.2,30.20,NNW,329,17.3,17.3,81,0.00,OVC,,0.56,236.0,WeatherDisplay:10.37,2013-04-23 21:01:00,
2013-04-23 16:06:00,35.5,29.6,30.20,North,349,20.7,20.7,79,0.00,OVC,,0.56,239.0,WeatherDisplay:10.37,2013-04-23 21:06:00,
2013-04-23 16:11:00,35.3,29.4,30.20,NW,318,17.3,17.3,79,0.00,OVC,,0.56,190.0,WeatherDisplay:10.37,2013-04-23 21:11:00,
2013-04-23 16:16:00,35.1,29.2,30.20,North,5,20.7,20.7,79,0.00,OVC,,0.56,188.0,WeatherDisplay:10.37,2013-04-23 21:16:00,
2013-04-23 16:21:00,35.2,29.3,30.20,NW,323,15.0,15.0,79,0.00,OVC,,0.56,169.0,WeatherDisplay:10.37,2013-04-23 21:21:00,
2013-04-23 16:26:00,35.1,28.9,30.20,NNE,26,21.9,21.9,78,0.00,OVC,,0.56,134.0,WeatherDisplay:10.37,2013-04-23 21:26:00,
2013-04-23 16:31:00,35.0,28.8,30.20,NNW,333,19.6,19.6,78,0.00,OVC,,0.56,149.0,WeatherDisplay:10.37,2013-04-23 21:31:00,
2013-04-23 16:36:00,35.0,28.5,30.20,NNW,340,17.3,17.3,77,0.00,OVC,,0.56,144.0,WeatherDisplay:10.37,2013-04-23 21:36:00,
2013-04-23 16:41:00,34.9,28.4,30.21,North,355,19.6,19.6,77,0.00,OVC,,0.56,153.0,WeatherDisplay:10.37,2013-04-23 21:41:00,
2013-04-23 16:46:00,34.9,28.4,30.20,NNW,333,21.9,21.9,77,0.00,OVC,,0.56,153.0,WeatherDisplay:10.37,2013-04-23 21:46:00,
2013-04-23 16:51:00,35.1,28.9,30.20,NNW,340,15.0,15.0,78,0.00,OVC,,0.56,169.0,WeatherDisplay:10.37,2013-04-23 21:51:00,
2013-04-23 16:56:00,35.2,28.4,30.20,NNW,329,20.7,20.7,76,0.00,OVC,,0.56,156.0,WeatherDisplay:10.37,2013-04-23 21:56:00,
2013-04-23 17:01:00,35.2,28.7,30.20,NNW,348,15.0,15.0,77,0.00,OVC,,0.56,151.0,WeatherDisplay:10.37,2013-04-23 22:01:00,
2013-04-23 17:06:00,35.1,28.3,30.21,NNW,336,19.6,19.6,76,0.00,OVC,,0.56,144.0,WeatherDisplay:10.37,2013-04-23 22:06:00,
2013-04-23 17:11:00,35.1,28.3,30.21,NNW,336,21.9,21.9,76,0.00,OVC,,0.56,142.0,WeatherDisplay:10.37,2013-04-23 22:11:00,
2013-04-23 17:16:00,35.1,28.6,30.21,North,360,11.5,11.5,77,0.00,OVC,,0.56,148.0,WeatherDisplay:10.37,2013-04-23 22:16:00,
2013-04-23 17:21:00,35.2,28.1,30.21,North,355,18.4,18.4,75,0.00,OVC,,0.56,146.0,WeatherDisplay:10.37,2013-04-23 22:21:00,
2013-04-23 17:26:00,35.2,28.1,30.21,NNE,26,13.8,13.8,75,0.00,OVC,,0.56,127.0,WeatherDisplay:10.37,2013-04-23 22:26:00,
2013-04-23 17:31:00,35.2,28.1,30.21,NW,325,13.8,13.8,75,0.00,OVC,,0.56,109.0,WeatherDisplay:10.37,2013-04-23 22:31:00,
2013-04-23 17:36:00,35.2,28.1,30.21,North,9,17.0,17.0,75,0.00,OVC,,0.56,107.0,WeatherDisplay:10.37,2013-04-23 22:36:00,
2013-04-23 17:41:00,35.2,27.7,30.21,North,360,16.1,16.1,74,0.00,OVC,,0.56,125.0,WeatherDisplay:10.37,2013-04-23 22:41:00,
2013-04-23 17:46:00,35.2,27.7,30.21,NNW,344,16.1,16.1,74,0.00,OVC,,0.56,169.0,WeatherDisplay:10.37,2013-04-23 22:46:00,
2013-04-23 17:51:00,35.3,27.8,30.21,North,351,18.0,18.0,74,0.00,OVC,,0.56,137.0,WeatherDisplay:10.37,2013-04-23 22:51:00,
2013-04-23 17:56:00,35.4,27.9,30.21,North,355,12.7,12.7,74,0.00,OVC,,0.56,134.0,WeatherDisplay:10.37,2013-04-23 22:56:00,
2013-04-23 18:01:00,35.4,27.9,30.21,WNW,290,15.0,15.0,74,0.00,OVC,,0.56,130.0,WeatherDisplay:10.37,2013-04-23 23:01:00,
2013-04-23 18:06:00,35.5,28.0,30.20,NW,319,11.5,11.5,74,0.00,OVC,,0.56,123.0,WeatherDisplay:10.37,2013-04-23 23:06:00,
2013-04-23 18:11:00,35.6,28.1,30.21,North,360,13.8,13.8,74,0.00,OVC,,0.56,118.0,WeatherDisplay:10.37,2013-04-23 23:11:00,
2013-04-23 18:16:00,35.5,27.7,30.21,NNW,346,13.8,13.8,73,0.00,OVC,,0.56,121.0,WeatherDisplay:10.37,2013-04-23 23:16:00,
2013-04-23 18:21:00,35.5,27.7,30.21,North,5,15.0,15.0,73,0.00,OVC,,0.56,109.0,WeatherDisplay:10.37,2013-04-23 23:21:00,
2013-04-23 18:26:00,35.5,28.0,30.21,WNW,294,12.7,12.7,74,0.00,OVC,,0.56,105.0,WeatherDisplay:10.37,2013-04-23 23:26:00,
2013-04-23 18:31:00,35.6,27.8,30.21,North,355,17.3,17.3,73,0.00,OVC,,0.56,88.0,WeatherDisplay:10.37,2013-04-23 23:31:00,
2013-04-23 18:36:00,35.5,28.0,30.22,NNW,340,11.5,11.5,74,0.00,OVC,,0.56,77.0,WeatherDisplay:10.37,2013-04-23 23:36:00,
2013-04-23 18:41:00,35.7,27.9,30.22,West,263,14.0,14.0,73,0.00,OVC,,0.56,79.0,WeatherDisplay:10.37,2013-04-23 23:41:00,
2013-04-23 18:46:00,35.7,27.9,30.22,North,360,16.1,16.1,73,0.00,OVC,,0.56,67.0,WeatherDisplay:10.37,2013-04-23 23:46:00,
2013-04-23 18:51:00,35.6,28.1,30.22,NNW,348,17.3,17.3,74,0.00,OVC,,0.56,54.0,WeatherDisplay:10.37,2013-04-23 23:51:00,
2013-04-23 18:56:00,35.6,28.1,30.22,NW,322,9.2,9.2,74,0.00,OVC,,0.56,49.0,WeatherDisplay:10.37,2013-04-23 23:56:00,
2013-04-23 19:01:00,35.5,28.0,30.22,NW,304,15.0,15.0,74,0.00,OVC,,0.56,35.0,WeatherDisplay:10.37,2013-04-24 00:01:00,
2013-04-23 19:06:00,35.5,28.0,30.22,North,355,11.5,11.5,74,0.00,OVC,,0.56,23.0,WeatherDisplay:10.37,2013-04-24 00:06:00,
2013-04-23 19:11:00,35.5,28.0,30.22,NW,323,11.5,11.5,74,0.00,OVC,,0.56,23.0,WeatherDisplay:10.37,2013-04-24 00:11:00,
2013-04-23 19:16:00,35.5,28.0,30.21,NNW,329,13.8,13.8,74,0.00,OVC,,0.56,30.0,WeatherDisplay:10.37,2013-04-24 00:16:00,
2013-04-23 19:21:00,35.4,27.9,30.22,NW,312,11.5,11.5,74,0.00,OVC,,0.56,23.0,WeatherDisplay:10.37,2013-04-24 00:21:00,
2013-04-23 19:26:00,35.5,28.4,30.23,NNW,342,11.0,11.0,75,0.00,OVC,,0.56,14.0,WeatherDisplay:10.37,2013-04-24 00:26:00,
2013-04-23 19:31:00,35.5,28.0,30.23,NW,314,11.5,11.5,74,0.00,OVC,,0.56,16.0,WeatherDisplay:10.37,2013-04-24 00:31:00,
2013-04-23 19:36:00,35.5,28.0,30.24,NW,323,17.0,17.0,74,0.00,OVC,,0.56,16.0,WeatherDisplay:10.37,2013-04-24 00:36:00,
2013-04-23 19:41:00,35.5,28.0,30.24,NW,316,11.5,11.5,74,0.00,OVC,,0.56,11.0,WeatherDisplay:10.37,2013-04-24 00:41:00,
2013-04-23 19:46:00,35.4,27.9,30.24,NNW,345,13.8,13.8,74,0.00,OVC,,0.56,11.0,WeatherDisplay:10.37,2013-04-24 00:46:00,
2013-04-23 19:51:00,35.4,27.9,30.25,NNE,15,9.2,9.2,74,0.00,OVC,,0.56,0.0,WeatherDisplay:10.37,2013-04-24 00:51:00,
2013-04-23 19:56:00,35.3,27.8,30.25,North,5,9.2,9.2,74,0.00,OVC,,0.56,0.0,WeatherDisplay:10.37,2013-04-24 00:56:00,
2013-04-23 20:01:00,35.3,27.8,30.25,NNE,13,12.7,12.7,74,0.00,OVC,,0.56,0.0,WeatherDisplay:10.37,2013-04-24 01:01:00,
2013-04-23 20:06:00,35.2,27.4,30.25,NW,306,12.7,12.7,73,0.00,OVC,,0.56,0.0,WeatherDisplay:10.37,2013-04-24 01:06:00,
2013-04-23 20:11:00,35.2,27.1,30.25,NNW,343,11.5,11.5,72,0.00,OVC,,0.56,0.0,WeatherDisplay:10.37,2013-04-24 01:11:00,
2013-04-23 20:16:00,35.1,27.0,30.25,NW,307,11.5,11.5,72,0.00,OVC,,0.56,0.0,WeatherDisplay:10.37,2013-04-24 01:16:00,
2013-04-23 20:21:00,35.1,27.0,30.25,NNW,335,11.5,11.5,72,0.00,OVC,,0.56,0.0,WeatherDisplay:10.37,2013-04-24 01:21:00,
2013-04-23 20:26:00,35.1,27.3,30.25,North,355,10.4,10.4,73,0.00,OVC,,0.56,0.0,WeatherDisplay:10.37,2013-04-24 01:26:00,
2013-04-23 20:31:00,35.0,27.5,30.26,NNW,329,12.7,12.7,74,0.00,OVC,,0.56,0.0,WeatherDisplay:10.37,2013-04-24 01:31:00,
2013-04-23 20:36:00,35.0,27.9,30.26,NNW,338,12.7,12.7,75,0.00,OVC,,0.56,0.0,WeatherDisplay:10.37,2013-04-24 01:36:00,
2013-04-23 20:41:00,34.8,28.0,30.26,NNW,340,9.0,9.0,76,0.00,OVC,,0.56,0.0,WeatherDisplay:10.37,2013-04-24 01:41:00,
2013-04-23 20:46:00,34.7,27.9,30.26,North,350,19.6,19.6,76,0.00,OVC,,0.56,0.0,WeatherDisplay:10.37,2013-04-24 01:46:00,
2013-04-23 20:51:00,34.4,28.2,30.27,NW,315,9.0,9.0,78,0.00,OVC,,0.56,0.0,WeatherDisplay:10.37,2013-04-24 01:51:00,
2013-04-23 20:56:00,34.2,28.7,30.27,NNW,327,10.4,10.4,80,0.00,OVC,,0.56,0.0,WeatherDisplay:10.37,2013-04-24 01:56:00,
2013-04-23 21:01:00,34.1,28.9,30.27,WNW,292,12.7,12.7,81,0.00,-SN,,0.56,0.0,WeatherDisplay:10.37,2013-04-24 02:01:00,
2013-04-23 21:06:00,34.1,28.6,30.28,NNW,334,15.0,15.0,80,0.00,-SN,,0.56,0.0,WeatherDisplay:10.37,2013-04-24 02:06:00,
2013-04-23 21:12:00,34.3,28.8,30.28,NW,313,13.8,13.8,80,0.00,-SN,,0.56,0.0,WeatherDisplay:10.37,2013-04-24 02:12:00,
2013-04-23 21:17:00,34.1,29.2,30.28,WNW,300,21.0,21.0,82,0.00,-SN,,0.56,0.0,WeatherDisplay:10.37,2013-04-24 02:17:00,
2013-04-23 21:22:00,33.8,29.2,30.28,NW,309,20.0,20.0,83,0.00,-SN,,0.56,0.0,WeatherDisplay:10.37,2013-04-24 02:22:00,
2013-04-23 21:28:00,33.5,29.5,30.28,NW,318,18.4,18.4,85,0.00,-SN,,0.56,0.0,WeatherDisplay:10.37,2013-04-24 02:28:00,
2013-04-23 21:33:00,33.0,29.3,30.29,NW,309,13.8,13.8,86,0.00,-SN,,0.56,0.0,WeatherDisplay:10.37,2013-04-24 02:33:00,
2013-04-23 21:38:00,32.9,29.7,30.29,NNW,342,11.5,11.5,88,0.00,-SN,,0.56,0.0,WeatherDisplay:10.37,2013-04-24 02:38:00,
2013-04-23 21:43:00,32.7,29.8,30.30,NW,313,13.8,13.8,89,0.00,-SN,,0.56,0.0,WeatherDisplay:10.37,2013-04-24 02:43:00,
2013-04-23 21:48:00,32.5,29.9,30.30,NNW,339,11.5,11.5,90,0.00,-SN,,0.56,0.0,WeatherDisplay:10.37,2013-04-24 02:48:00,
2013-04-23 21:53:00,32.3,30.0,30.31,NW,308,11.5,11.5,91,0.00,-SN,,0.56,0.0,WeatherDisplay:10.37,2013-04-24 02:53:00,
2013-04-23 21:59:00,32.1,29.8,30.31,NNW,336,12.7,12.7,91,0.00,-SN,,0.56,0.0,WeatherDisplay:10.37,2013-04-24 02:59:00,
2013-04-23 22:05:00,32.0,29.9,30.31,West,269,8.1,8.1,92,0.00,-SN,,0.56,0.0,WeatherDisplay:10.37,2013-04-24 03:05:00,
2013-04-23 22:10:00,31.9,30.1,30.32,NW,312,11.5,11.5,93,0.00,-SN,,0.56,0.0,WeatherDisplay:10.37,2013-04-24 03:10:00,
2013-04-23 22:15:00,31.8,30.0,30.33,NW,319,12.7,12.7,93,0.00,-SN,,0.56,0.0,WeatherDisplay:10.37,2013-04-24 03:15:00,
2013-04-23 22:21:00,31.7,29.9,30.33,NW,309,9.2,9.2,93,0.00,-SN,,0.56,0.0,WeatherDisplay:10.37,2013-04-24 03:21:00,
2013-04-23 22:27:00,31.7,29.9,30.33,North,10,8.1,8.1,93,0.00,-SN,,0.56,0.0,WeatherDisplay:10.37,2013-04-24 03:27:00,
2013-04-23 22:32:00,31.7,30.2,30.33,NW,323,6.9,6.9,94,0.00,-SN,,0.56,0.0,WeatherDisplay:10.37,2013-04-24 03:32:00,
2013-04-23 22:37:00,31.6,30.1,30.32,NW,311,8.1,8.1,94,0.00,-SN,,0.56,0.0,WeatherDisplay:10.37,2013-04-24 03:37:00,
2013-04-23 22:42:00,31.7,30.2,30.31,WNW,298,4.6,4.6,94,0.00,-SN,,0.56,0.0,WeatherDisplay:10.37,2013-04-24 03:42:00,
2013-04-23 22:48:00,31.7,30.2,30.31,NNW,327,5.8,5.8,94,0.00,-SN,,0.56,0.0,WeatherDisplay:10.37,2013-04-24 03:48:00,
2013-04-23 22:54:00,31.7,30.2,30.31,NW,304,3.5,3.5,94,0.00,-SN,,0.56,0.0,WeatherDisplay:10.37,2013-04-24 03:54:00,
2013-04-23 22:59:00,31.7,30.2,30.30,NNW,333,4.0,4.0,94,0.00,-SN,,0.56,0.0,WeatherDisplay:10.37,2013-04-24 03:59:00,
2013-04-23 23:01:00,31.8,30.3,30.31,NW,319,3.5,3.5,94,0.00,-SN,,0.56,0.0,WeatherDisplay:10.37,2013-04-24 04:01:00,
2013-04-23 23:06:00,31.8,30.3,30.31,NW,314,2.3,2.3,94,0.00,-SN,,0.56,0.0,WeatherDisplay:10.37,2013-04-24 04:06:00,
2013-04-23 23:11:00,31.8,30.3,30.32,West,278,3.5,3.5,94,0.00,-SN,,0.56,0.0,WeatherDisplay:10.37,2013-04-24 04:11:00,
2013-04-23 23:16:00,31.8,30.3,30.32,WNW,301,2.3,2.3,94,0.00,-SN,,0.56,0.0,WeatherDisplay:10.37,2013-04-24 04:16:00,
2013-04-23 23:21:00,31.8,30.3,30.31,WNW,287,2.3,2.3,94,0.00,-SN,,0.56,0.0,WeatherDisplay:10.37,2013-04-24 04:21:00,
2013-04-23 23:26:00,31.9,30.4,30.32,West,261,3.5,3.5,94,0.00,-SN,,0.56,0.0,WeatherDisplay:10.37,2013-04-24 04:26:00,
2013-04-23 23:31:00,31.9,30.4,30.32,West,263,5.8,5.8,94,0.00,-SN,,0.56,0.0,WeatherDisplay:10.37,2013-04-24 04:31:00,
2013-04-23 23:36:00,31.9,30.4,30.33,WSW,248,3.5,3.5,94,0.00,-SN,,0.56,0.0,WeatherDisplay:10.37,2013-04-24 04:36:00,
2013-04-23 23:41:00,32.0,30.5,30.32,WSW,242,1.2,0.0,94,0.00,-SN,,0.56,0.0,WeatherDisplay:10.37,2013-04-24 04:41:00,
2013-04-23 23:46:00,32.0,30.5,30.32,West,281,3.5,3.5,94,0.00,-SN,,0.56,0.0,WeatherDisplay:10.37,2013-04-24 04:46:00,
2013-04-23 23:51:00,32.1,30.6,30.32,West,273,3.5,3.5,94,0.00,-SN,,0.56,0.0,WeatherDisplay:10.37,2013-04-24 04:51:00,
2013-04-23 23:56:00,32.1,30.6,30.33,WSW,251,4.6,4.6,94,0.00,-SN,,0.56,0.0,WeatherDisplay:10.37,2013-04-24 04:56:00,